www.pogodaiklimat.ru

Погода и климат >> Архив погоды >> Индонезия >> Сабанг


ПОГОДА в Сабанге

  • Прогноз погоды в Сабанге
  • Монитор погоды в Сабанге

АРХИВ ПОГОДЫ в Сабанге

Время (UTC), дата Ветер
(напр.,м/с)
 
Видим.   Явления Облачность Т
(С)
Тd
(С)
f
(%)
Тe
(С)
Тes
(С)
Комфортность P
(гПа)
Po
(гПа)
Тmin
(С)
Tmax
(С)
R
(мм)
R24
(мм)
S
(см)
00 15.09 З 4 7000 м 9/5 600 м
[Sc Ac trans Ci sp]
+27.6 +22.5 74 +36 +36 очень
душно
1011.6 997.0 +25.4
03 15.09 З 5 8000 м 9/5 600 м
[Sc Ac As Ci sp]
+29.0 +23.4 72 +39 +41 очень
душно
1013.3 998.7
06 15.09 ЮЗ 10 8000 м 9/5 600 м
[Sc Ac As Ci sp]
+31.8 +23.1 60 +42 +42 опасность
перегрева
1010.8 996.2
09 15.09 ЮЗ 9 8000 м 9/5 600 м
[Sc Ac As Ci sp]
+29.2 +24.9 78 +42 +42 опасность
перегрева
1008.4 993.8
12 15.09 ЮЗ 8 6000 м 10/5 600 м
[Sc Ac As Ci sp]
+29.0 +22.5 68 +38 +38 очень
душно
1009.9 995.3 +32.2
15 15.09 ЮЗ 6 6000 м 10/5 600 м
[Sc Ac As Ci sp]
+27.8 +23.1 76 +37 +37 очень
душно
1012.2 997.6
18 15.09 ЮЗ 4 6000 м 9/5 600 м
[Sc Ac trans Ci sp]
+27.4 +23.6 80 +37 +37 очень
душно
1010.9 996.3
21 15.09 ЮЗ 3 6000 м 9/5 600 м
[Sc Ac trans Ci sp]
+27.2 +24.2 84 +38 +38 очень
душно
1009.7 995.1
00 16.09 ЮЗ 4 6000 м 10/5 600 м
[Sc Ac As Ci sp]
+27.2 +23.3 79 +37 +37 очень
душно
1010.3 995.7 +25.6
03 16.09 ЮЗ 8 7000 м 10/5 600 м
[Sc Ac As Ci sp]
+29.4 +23.9 72 +40 +41 очень
душно
1012.1 997.5
06 16.09 ЮЗ 6 7000 м 10/5 600 м
[Sc Ac As Ci sp]
+30.0 +23.5 68 +41 +43 опасность
перегрева
1010.7 996.1
09 16.09 ЮЗ 7 7000 м 10/5 600 м
[Sc Ac As Ci sp]
+29.4 +23.6 71 +40 +41 очень
душно
1009.0 994.4
12 16.09 ЮЗ 5 6000 м 10/5 600 м
[Sc Ac As Ci sp]
+27.6 +24.1 81 +38 +38 очень
душно
1009.6 995.0 +30.4
15 16.09 ЮЗ 4 6000 м 10/5 600 м
[Sc Ac As Ci sp]
+26.8 +24.1 85 +37 +37 очень
душно
1011.6 997.0
18 16.09 Ю 3 6000 м 10/5 600 м
[Sc Ac As Ci sp]
+26.4 +24.3 88 +37 +37 очень
душно
1011.2 996.7
21 16.09 ЮЗ 3 6000 м 10/5 600 м
[Sc Ac As Ci sp]
+25.8 +24.3 91 +36 +36 очень
душно
1009.3 994.8
00 17.09 ЮЗ 4 7000 м 9/5 600 м
[Sc Ac As Ci sp]
+26.8 +22.6 78 +35 +35 очень
душно
1010.2 995.6 +25.4
03 17.09 ЮЗ 7 10 км 8/4 600 м
[Cu med, cong Ac trans Ci fib]
+31.7 +22.8 59 +41 +43 опасность
перегрева
1012.2 997.6
06 17.09 ЮЗ 3 10 км 8/4 600 м
[Cu med, cong Ac trans Ci fib]
+33.2 +23.4 57 +44 +51 опасность
перегрева
1010.3 995.8
09 17.09 ЮЗ 4 10 км 8/4 600 м
[Cu med, cong Ac trans Ci fib]
+32.2 +21.3 53 +40 +43 очень
душно
1008.7 994.1
12 17.09 ЮЗ 4 8000 м 8/4 600 м
[Cu med, cong Ac trans Ci sp]
+28.3 +22.5 71 +37 +37 очень
душно
1010.3 995.9 +34.4
15 17.09 ЮЗ 4 6000 м 8/4 600 м
[Cu med, cong Ac trans Ci sp]
+27.2 +22.4 75 +36 +36 очень
душно
1012.5 997.9
18 17.09 штиль 0 6000 м 9/5 600 м
[Cu med, cong Ac trans Ci sp]
+26.6 +22.4 78 +35 +35 очень
душно
1012.0 997.4
21 17.09 ЮЗ 3 6000 м 9/5 600 м
[Cu med, cong Ac trans Ci sp]
+26.6 +22.4 78 +35 +35 очень
душно
1012.0 997.4
00 18.09 З 5 7000 м 10/5 600 м
[Cu med, cong Ac trans Ci sp]
+27.2 +22.4 75 +36 +36 очень
душно
1011.5 996.9 +26.4
03 18.09 Ю 3 7000 м 9/5 600 м
[Cu med, cong Ac trans Ci sp]
+31.0 +24.1 67 +43 +46 опасность
перегрева
1013.1 998.5
06 18.09 В 3 7000 м 9/5 600 м
[Cu med, cong Ac trans Ci sp]
+31.6 +22.9 60 +42 +47 опасность
перегрева
1011.0 996.4
09 18.09 ЮВ 3 8000 м 9/5 600 м
[Cu med, cong Ac trans Ci sp]
+31.2 +22.4 60 +41 +43 опасность
перегрева
1009.9 995.3
12 18.09 ЮЗ 3 6000 м 9/5 600 м
[Cu med, cong Ac trans Ci sp]
+28.8 +23.8 74 +39 +39 очень
душно
1011.3 996.8 +34.0
15 18.09 ЮЗ 3 6000 м зарница 9/5 600 м
[Cb calv Ac trans Ci sp]
+27.5 +23.2 77 +37 +37 очень
душно
1013.1 998.5
18 18.09 штиль 0 6000 м 9/5 600 м
[Cu med, cong Ac trans Ci sp]
+26.0 +23.6 87 +35 +35 очень
душно
1012.1 997.5
21 18.09 штиль 0 6000 м 9/5 600 м
[Cu med, cong Ac trans Ci sp]
+26.0 +23.3 85 +35 +35 очень
душно
1011.0 996.4
00 19.09 штиль 0 6000 м 9/5 600 м
[Cu med, cong Ac trans Ci sp]
+25.8 +23.7 88 +35 +35 очень
душно
1012.0 997.4 +25.0
03 19.09 В 3 7000 м 9/5 600 м
[Cu med, cong Ac trans Ci sp]
+30.0 +24.2 71 +42 +45 опасность
перегрева
1013.5 999.0
06 19.09 штиль 0 7000 м 9/5 600 м
[Cu med, cong Ac trans Ci sp]
+30.2 +24.4 71 +42 +51 опасность
перегрева
1012.2 997.7
09 19.09 СЗ 5 5000 м осадки на расстоянии 10/5 570 м
[Sc Ac As Ci sp]
+30.6 +24.6 70 +43 +44 опасность
перегрева
1010.2 995.6
12 19.09 штиль 0 7000 м 9/5 600 м
[Sc Ac trans Ci sp]
+28.6 +23.9 76 +40 +40 очень
душно
1011.3 996.7 +31.2
15 19.09 штиль 0 7000 м 9/5 600 м
[Sc Ac trans Ci sp]
+26.0 +23.3 85 +35 +35 очень
душно
1012.9 998.3
18 19.09 штиль 0 6000 м 9/5 600 м
[Sc Ac trans Ci sp]
+25.8 +23.7 88 +35 +35 очень
душно
1012.1 997.6
21 19.09 штиль 0 6000 м 9/5 600 м
[Sc Ac trans Ci sp]
+25.0 +23.5 91 +34 +34 очень
душно
1010.5 996.0
00 20.09 штиль 0 7000 м 10/5 600 м
[Cu med, cong Ac trans Ci sp]
+25.0 +23.7 93 +34 +34 очень
душно
1011.2 996.6 +24.2
03 20.09 В 3 8000 м 9/5 600 м
[Sc Ac trans Ci sp]
+30.2 +23.5 67 +41 +44 опасность
перегрева
1012.7 998.1
06 20.09 ЮВ 3 8000 м 9/5 600 м
[Sc Ac As Ci sp]
+29.6 +24.4 74 +42 +47 опасность
перегрева
1011.7 997.1
09 20.09 В 3 8000 м в посл. час дождь 9/5 600 м
[Sc Ac As Ci sp]
+29.2 +25.5 80 +43 +45 опасность
перегрева
1009.1 994.5 0.2
12 20.09 штиль 0 7000 м в посл. час дождь 9/5 600 м
[Sc Ac As Ci sp]
+27.8 +24.3 81 +39 +39 очень
душно
1010.4 995.9 +30.8 0.4
15 20.09 штиль 0 7000 м 9/5 600 м
[Sc Ac As Ci sp]
+26.6 +24.2 87 +37 +37 очень
душно
1011.7 997.1
18 20.09 штиль 0 6000 м в посл. час дождь 9/5 600 м
[Sc Ac As Ci sp]
+25.6 +23.8 90 +35 +35 очень
душно
1011.2 996.6 0.4
21 20.09 штиль 0 6000 м 9/5 600 м
[Sc Ac As Ci sp]
+25.4 +23.9 91 +35 +35 очень
душно
1010.2 995.6
00 21.09 штиль 0 7000 м 8/4 600 м
[Sc Ac trans Ci sp]
+26.4 +23.4 84 +36 +36 очень
душно
1010.5 995.9 +24.6 1
03 21.09 штиль 0 7000 м 8/4 600 м
[Cu med, cong Ac trans Ci sp]
+31.0 +22.2 60 +40 +47 очень
душно
1012.3 997.7
06 21.09 В 3 7000 м 9/5 600 м
[Sc Ac As Ci sp]
+29.6 +23.6 70 +40 +46 очень
душно
1010.4 995.8
09 21.09 штиль 0 8000 м 8/4 600 м
[Sc Ac trans Ci sp]
+30.4 +23.7 67 +41 +46 опасность
перегрева
1008.7 994.1
12 21.09 Ю 3 6000 м 8/4 600 м
[Sc Ac trans Ci sp]
+28.0 +24.2 80 +39 +39 очень
душно
1008.9 994.4 +32.0
15 21.09 штиль 0 6000 м 9/5 600 м
[Sc Ac trans Ci sp]
+26.2 +24.1 88 +36 +36 очень
душно
1011.5 996.9
18 21.09 штиль 0 6000 м 9/5 600 м
[Sc Ac trans Ci sp]
+25.4 +23.9 91 +35 +35 очень
душно
1011.1 996.5

 

Местоположение метеостанции Сабанг (Индонезия): широта 5.87 долгота 95.32 высота над уровнем моря 126 м.

В архиве по умолчанию представлена погода в Сабанге за последнюю неделю. Архивные данные за месяц целиком и за предыдущие месяцы, начиная с января 2011 года, Вы можете получить, выбрав интересующий диапазон дат из раскрывающегося списка и нажав кнопку "Ввод!".


*Определитесь, кто Вы:
робот инопланетянин человек

Внимание! Время в таблицах - всемирное. Для получения местного времени необходимо прибавить поправку, которая равна 7 ч.

Смотрите также архив погоды в соседних городах и на ближайших метеорологических станциях:

Погода в Банда-Ачехе (Индонезия) (40 км)
Погода в Меулабохе (Индонезия) (201 км)
Погода в Лхоксёмаве (Индонезия) (220 км)
Погода в Нанкаури (Андаманские и Никобарские острова, Индия) (307 км)
Погода на Пхукете (Таиланд) (407 км)
Погода в Пхукет аэропорту (Таиланд) (416 км)
Погода в Белаване (Индонезия) (440 км)
Погода в Такуа Па (Таиланд) (450 км)
Погода на Ко Ланта (Таиланд) (452 км)
Погода в Медан Полония (Индонезия) (452 км)

Пояснения к столбцам:

Ветер - указаны скорость ветра в м/с - средняя за 10 мин, порывы в срок и между сроками (в фигурных скобках) и направление, откуда дует ветер: С - северный, СВ - северо-восточный, В - восточный, ЮВ - юго-восточный, Ю - южный, ЮЗ - юго-западный, З - западный, СЗ - северо-западный.
Видимость - горизонтальная дальность видимости в метрах или километрах. При видимости от 1 до 10 км при отсутствии осадков обычно наблюдается дымка, при ухудшении видимости до 1 км и менее - туман. В сухую погоду видимость может ухудшаться дымом, пылью или мглою.
Явления - указаны атмосферные явления, наблюдавшиеся в срок или в последний час перед сроком; фигурными скобками обозначены явления, наблюдавшиеся между сроками (за 1-3 часа до срока); квадратными скобками обозначены град или гололедные отложения с указанием их диаметра в мм.
Облачность - указаны через наклонную черту общая и нижняя облачность в баллах и высота нижней границы облаков в метрах; квадратными скобками обозначены формы облаков: Ci - перистые, Cs - перисто-слоистые, Cc - перисто-кучевые, Ac - высококучевые, As - высокослоистые, Sc - слоисто-кучевые, Ns - слоисто-дождевые, Cu - кучевые, Cb - кучево-дождевые. Подробнее классификацию облаков см. в Атласе облаков (PDF).
T - Температура воздуха - температура, измеренная на высоте 2 м над землей.
Td - Температура точки росы - температура, при понижении до которой содержащийся в воздухе водяной пар достигнет насыщения.
f - Относительная влажность воздуха - влажноcть воздуха, измеренная на высоте 2 м над землей.
Te - Эффективная температура - температура, которую ощущает одетый по сезону человек в тени. Характеристика душности погоды. При расчете учитывается влияние влажности воздуха и скорости ветра на теплоощущения человека.
Tes - Эффективная температура на солнце - температура, которую ощущает человек, с поправкой на солнечный нагрев. Характеристика знойности погоды. Зависит от высоты солнца над горизонтом, облачности и скорости ветра. Ночью, в пасмурную погоду, а также при ветре 12 м/с и более поправка равна нулю.
P - Атмосферное давление - приведенное к уровню моря атмосферное давление.
Po - Атмосферное давление - измеренное на уровне метеостанции атмосферное давление.
Tmin - Минимальная температура - минимум температуры воздуха на высоте 2 м над землей.
Tmax - Максимальная температура - максимум температуры воздуха на высоте 2 м над землей.
R - Количество осадков - Количество выпавших осадков за период времени, мм. При наведении курсора мыши на число - период времени, за который выпало указанное количество осадков.
R24 - Количество осадков - Количество выпавших осадков за 24 часа, мм.
S - Снежный покров - Высота снежного покрова, см. При наведении курсора мыши на число - состояние снежного покрова и степень покрытия местности в баллах.